Wind_Speed
30 28 27 26 24 22 20 19 18 17 18 17 15 15 17 20 23 26 23 22 26 26 28 26 22 22 15 14 17 10 10 10 11 9 5 5 5 6 7 10 15 16 12 12 12 6 8 7 9 6 4 10 6 6
29 28 27 25 23 21 20 20 19 18 19 19 18 16 16 20 22 25 27 24 24 24 27 16 20 20 21 20 16 19 13 4 2 5 7 6 6 5 9 10 5 6 8 7 7 6 11 5 6 2 5 2 2 5
28 27 25 24 22 20 19 20 21 21 20 19 17 18 20 16 22 24 25 25 25 24 25 25 18 9 18 21 22 27 18 11 14 15 7 8 6 6 6 8 6 3 9 10 9 10 11 7 9 5 5 6 9 8
25 25 24 21 19 18 18 20 21 22 21 22 20 22 23 20 19 23 25 26 25 24 24 21 12 19 18 17 18 18 17 17 12 12 12 11 11 8 10 11 15 4 1 9 12 16 10 9 3 4 1 3 6 9
22 22 20 17 17 17 17 20 22 24 26 24 22 20 20 21 20 19 23 22 23 22 13 6 10 19 19 20 17 14 12 10 11 12 6 9 12 13 14 15 14 4 2 6 5 8 16 16 11 3 3 4 7 11
20 17 16 16 14 13 17 23 24 27 29 28 25 24 20 20 22 20 26 24 23 22 20 21 4 4 17 13 17 16 14 14 14 14 12 11 11 10 8 4 9 10 5 4 5 6 4 3 5 7 7 8 9 13
16 15 15 13 11 16 19 22 22 23 26 29 30 29 23 21 28 29 27 19 17 20 19 12 8 7 17 19 14 14 17 20 20 17 17 14 12 9 8 13 9 3 5 8 9 8 6 4 6 8 8 10 11 13
15 13 12 10 15 17 21 24 24 25 26 29 28 29 27 25 28 29 26 16 21 17 18 9 10 6 17 17 17 16 18 22 22 22 18 13 11 17 7 11 10 10 10 7 2 4 5 7 9 9 10 10 11 13
12 9 8 8 9 10 18 16 17 14 28 27 31 29 32 32 34 25 25 22 13 23 12 10 8 5 18 18 17 17 17 17 14 14 19 13 17 8 8 8 7 8 8 4 4 10 13 11 11 12 13 14 16 18
11 7 6 4 2 7 10 8 12 22 27 33 38 36 38 33 24 29 21 17 17 26 21 16 11 12 10 23 18 17 16 15 7 11 14 17 17 16 12 7 7 5 7 12 15 18 18 19 18 18 17 19 21 19
11 7 6 4 1 8 5 8 19 25 35 40 37 23 28 31 23 25 11 17 14 10 17 21 14 6 5 20 17 13 7 7 5 6 10 7 11 15 13 13 13 18 21 22 21 21 22 20 18 19 20 20 19 19
10 8 6 3 7 4 7 17 21 32 36 33 28 32 29 22 12 6 12 12 8 9 7 14 20 6 2 5 13 15 8 9 5 10 8 4 10 12 14 15 17 17 18 19 19 19 18 19 19 18 17 17 19 19
11 9 5 9 12 17 15 22 26 27 27 24 34 23 19 7 6 8 10 9 8 11 11 14 17 14 6 4 1 5 8 7 7 10 6 8 8 10 11 14 17 17 17 16 16 17 18 18 17 17 17 18 19 19
13 10 10 13 20 19 16 19 23 27 28 24 9 11 7 7 8 9 16 17 10 11 13 12 14 11 11 5 3 4 6 5 6 5 8 12 13 14 16 16 15 14 13 13 13 14 15 16 17 17 17 16 16 14
14 14 17 23 23 25 25 25 33 18 11 7 7 5 4 6 12 14 18 16 13 10 12 15 14 13 10 5 4 3 6 5 6 8 12 11 11 11 13 15 15 14 13 13 12 12 12 12 12 12 11 11 10 8
15 18 24 21 27 28 29 25 17 11 5 5 5 9 7 8 10 11 14 14 13 11 10 10 8 6 6 5 6 6 5 6 6 8 9 9 11 11 11 10 10 9 9 9 9 9 8 6 5 4 3 3 3 2
20 20 21 21 21 24 25 20 21 15 7 3 7 6 3 6 12 14 16 14 14 17 18 8 7 6 6 6 7 8 8 7 5 5 7 7 6 6 6 7 7 7 7 6 5 5 3 3 3 3 4 5 4 4
21 19 16 19 19 15 8 5 3 4 7 11 11 12 11 10 12 12 12 12 15 18 18 9 6 9 6 6 6 8 6 5 4 4 3 4 4 5 5 4 3 2 2 1 1 1 2 3 4 5 5 4 4 3
16 15 13 11 11 10 9 6 6 13 17 16 17 15 11 12 12 11 10 12 15 16 12 9 5 8 8 5 4 4 3 3 1 1 2 2 2 1 1 1 1 0 1 1 1 1 1 2 2 1 0 2 3 4
15 13 11 10 9 8 5 10 17 14 17 16 14 12 12 13 11 10 10 10 11 11 9 7 5 8 7 8 7 5 2 1 1 1 2 1 2 2 2 2 1 1 2 2 2 2 3 3 4 5 6 6 7 8
15 12 9 8 6 8 11 11 11 18 18 15 13 11 12 10 8 7 5 4 4 4 13 16 13 10 8 6 5 3 1 2 2 4 4 5 5 5 4 4 4 5 5 5 6 6 7 8 8 9 9 10 10 10
12 11 9 8 10 11 9 13 17 17 16 15 13 12 12 12 10 8 10 12 20 18 15 15 11 8 5 3 1 2 3 5 5 6 6 6 6 6 7 8 8 8 7 8 9 9 10 10 11 12 12 12 11 11
12 12 9 6 5 7 16 21 19 16 11 17 16 13 14 16 17 17 12 16 18 17 14 12 9 6 4 3 2 3 3 4 5 5 5 6 7 7 7 7 8 9 9 9 10 11 11 11 12 12 12 12 12 11
11 11 8 3 3 7 18 12 15 16 19 17 14 15 16 17 17 16 18 17 13 12 12 9 7 7 6 5 5 6 6 5 5 6 7 7 7 8 9 9 8 8 9 10 10 11 11 11 11 11 11 11 11 11
9 7 5 6 6 11 12 14 17 18 19 19 20 17 16 13 13 14 12 13 13 13 12 10 8 7 7 7 7 7 6 7 7 7 7 8 9 9 9 10 10 10 10 10 11 11 11 11 11 11 12 12 12 12
7 4 6 10 12 12 12 16 16 22 23 17 13 16 18 10 5 6 11 13 13 12 11 10 10 9 9 11 11 10 8 8 9 9 9 9 8 8 8 10 11 12 11 11 11 12 12 12 12 12 12 11 11 12
6 4 9 12 12 13 18 17 24 23 13 10 19 16 6 4 4 9 11 12 12 11 11 10 10 11 11 10 10 10 10 9 9 9 9 9 10 10 9 10 10 12 11 11 10 10 11 11 11 11 11 11 11 11
7 6 8 12 12 16 20 26 23 14 9 19 15 7 5 5 10 11 12 10 10 9 9 9 9 11 11 11 11 10 9 9 9 9 9 10 11 11 11 11 12 11 11 11 10 10 10 10 10 10 11 11 10 9
6 7 11 14 16 20 25 22 15 13 16 15 11 11 15 13 14 12 11 9 8 8 8 9 10 11 11 10 9 9 9 10 10 10 10 10 10 11 11 12 11 11 11 10 10 10 9 9 8 8 7 7 8 9
10 14 18 20 23 24 23 17 15 20 17 15 13 14 14 14 14 12 10 8 7 7 8 9 10 11 11 11 10 9 10 11 11 11 10 10 9 10 12 12 10 8 9 9 9 8 7 7 6 7 7 8 9 10
19 22 24 26 25 22 22 24 24 23 20 19 17 13 11 13 13 12 9 7 6 5 7 8 9 10 11 12 12 12 12 13 13 13 12 11 11 11 11 10 9 8 7 6 7 7 7 7 8 8 9 10 11 11
24 25 27 28 27 29 30 30 27 24 22 18 16 14 13 11 11 9 7 5 5 6 8 10 12 13 13 12 12 13 14 14 14 13 12 11 11 11 11 9 8 7 7 7 7 8 8 8 8 9 9 10 11 12
22 23 22 26 31 33 31 29 25 22 19 17 14 13 12 10 9 7 5 4 5 6 8 10 12 13 14 14 14 15 15 15 14 12 11 11 11 10 9 8 7 7 7 8 8 8 9 10 10 11 11 12 12 13
Wind_Direction
256 263 267 270 272 270 259 262 267 262 262 251 252 256 255 233 228 231 238 231 236 246 258 263 256 256 255 253 267 253 294 281 275 265 243 260 273 286 289 294 298 202 186 199 214 215 250 277 289 288 255 280 334 336
255 261 265 268 269 263 256 259 258 263 266 255 250 243 249 239 224 229 228 227 229 242 251 257 250 241 243 249 257 251 256 193 256 217 243 234 251 284 303 308 245 170 192 173 196 224 235 260 302 358 119 85 352 12
253 259 263 264 263 256 258 261 256 265 262 248 248 244 236 244 230 219 229 225 232 243 253 244 242 257 252 248 246 247 251 263 274 256 231 237 260 283 304 298 330 354 198 182 204 225 218 214 226 192 287 283 273 310
249 256 259 261 253 259 261 261 260 258 255 255 252 233 231 234 233 233 226 223 229 242 250 244 243 238 240 245 244 238 273 237 253 222 223 242 264 281 286 295 304 238 131 225 244 174 198 198 214 169 178 360 11 296
244 249 256 249 253 259 262 267 264 256 253 249 236 224 226 225 225 233 225 225 225 227 248 259 246 248 228 230 230 249 242 198 215 260 249 261 273 290 288 287 286 249 294 306 252 164 193 180 166 251 284 320 319 325
237 243 238 246 250 259 270 269 263 255 246 240 233 222 214 217 209 219 212 223 219 223 244 266 283 214 204 213 224 228 237 245 237 248 257 268 268 276 290 230 268 275 295 275 202 149 153 232 221 250 294 314 315 322
228 222 235 239 256 265 294 293 278 256 242 233 224 215 212 208 204 214 211 208 202 214 226 272 297 248 203 196 211 224 223 229 241 249 256 261 269 233 253 255 261 306 326 270 245 235 233 287 289 294 310 309 312 314
207 222 232 248 268 291 301 302 285 261 233 220 210 205 200 195 202 204 205 198 203 207 204 243 266 302 184 194 206 216 217 222 235 242 257 262 265 253 240 247 246 253 252 235 259 260 291 301 284 283 303 312 318 314
201 211 221 244 312 324 323 325 316 245 197 187 181 172 175 196 194 190 199 208 214 194 203 227 239 278 194 195 194 202 203 213 216 241 243 248 235 239 258 252 238 249 253 262 290 298 293 294 287 282 292 299 303 297
176 184 214 220 340 6 11 43 79 122 149 158 158 163 167 181 186 173 176 196 203 199 212 234 252 260 220 197 165 187 206 209 194 219 218 205 223 235 240 222 278 244 283 287 282 281 283 283 281 285 281 287 297 295
151 166 199 224 195 31 79 103 126 136 140 144 156 150 167 175 175 177 162 179 188 205 227 230 239 232 248 188 193 195 171 188 203 208 203 219 225 234 245 248 252 267 271 269 270 272 278 280 282 280 281 285 291 294
141 155 151 123 130 112 134 142 139 143 144 153 143 152 157 165 143 152 155 173 183 203 213 210 224 224 181 185 178 193 181 179 189 186 203 230 239 257 255 251 254 259 264 272 276 278 278 281 287 286 286 289 292 292
149 146 134 135 128 143 144 141 148 149 152 137 137 141 148 133 143 158 166 168 185 178 193 194 203 221 234 227 228 153 167 182 176 187 224 227 248 257 262 266 269 277 282 281 282 282 283 285 287 289 290 291 291 292
149 141 118 126 126 121 128 148 145 143 150 147 97 120 152 163 174 178 176 180 183 182 186 185 195 195 204 195 181 185 182 183 195 227 229 236 252 260 262 269 280 287 290 291 290 289 289 290 293 292 292 292 290 288
148 136 124 131 131 123 124 135 134 116 103 118 118 137 125 138 155 168 176 183 179 172 175 184 189 198 191 197 184 178 188 208 224 230 244 246 243 255 269 278 279 284 289 292 294 293 292 293 292 293 295 293 292 291
151 145 150 148 143 135 145 150 154 145 134 99 98 125 130 152 165 168 175 176 174 167 151 147 162 169 184 201 196 197 201 221 243 250 253 254 260 265 271 278 286 288 290 294 298 301 300 300 304 313 323 328 333 328
137 148 149 157 156 159 163 167 180 189 205 177 142 145 120 174 172 174 178 180 179 165 167 163 184 177 190 207 206 206 221 242 234 246 254 263 261 270 278 281 284 293 299 303 306 310 330 5 28 41 58 62 78 83
132 136 133 135 135 147 154 161 179 161 164 146 145 138 145 153 151 159 173 185 188 189 189 194 193 193 208 207 211 212 206 224 257 263 245 247 253 251 251 257 261 260 258 277 303 19 46 63 76 75 76 75 82 91
140 126 122 135 155 163 161 157 135 131 125 131 133 132 128 132 134 142 156 165 176 193 214 229 231 204 211 210 182 180 184 187 234 272 275 269 255 226 192 172 163 87 63 71 81 108 113 105 98 95 320 314 317 317
137 132 123 119 128 148 113 118 133 127 136 130 129 134 139 129 127 128 139 163 180 194 198 209 208 144 127 119 110 100 71 34 24 7 335 301 259 256 246 249 270 283 285 285 279 277 269 267 272 285 296 301 302 301
143 136 125 100 127 161 127 136 123 135 131 127 126 132 131 126 125 122 127 163 197 229 136 124 124 126 124 115 103 93 36 344 310 312 316 302 291 282 284 288 286 282 282 281 282 287 288 291 295 296 299 301 302 301
156 147 133 101 101 105 114 134 142 139 135 135 130 127 120 121 127 118 106 135 120 111 109 108 110 113 108 96 62 8 341 341 338 334 328 316 311 308 303 301 302 298 292 290 289 289 290 291 294 296 297 297 296 296
152 156 146 123 83 95 125 135 139 137 136 143 139 131 129 126 125 121 117 109 108 109 106 100 95 84 74 48 8 339 326 318 311 308 302 294 292 290 285 284 283 286 289 289 290 290 291 292 292 293 295 296 296 294
153 156 153 131 96 120 144 149 151 143 143 144 143 134 131 125 120 117 113 103 104 103 98 90 76 60 44 24 12 357 344 334 330 323 316 315 312 308 306 304 299 293 289 287 286 287 289 291 291 291 291 294 297 296
153 157 154 152 133 147 149 150 149 145 150 145 136 131 132 129 118 113 112 102 88 79 75 70 58 39 24 9 3 0 344 326 320 316 309 302 300 299 299 298 296 296 297 298 297 294 292 290 288 288 288 287 286 284
166 164 171 176 156 152 149 151 155 147 144 136 138 139 131 121 100 113 100 86 81 74 65 53 44 31 10 355 353 352 347 332 325 324 321 317 313 306 299 296 296 298 299 297 295 293 292 293 295 296 296 297 292 289
184 183 188 180 172 165 159 155 152 150 147 145 149 143 132 112 103 124 103 93 86 73 59 41 23 10 0 353 349 348 347 341 335 333 329 324 321 320 316 310 303 302 302 300 298 295 294 295 295 293 292 291 290 290
197 203 193 184 176 172 164 157 156 160 157 154 154 148 134 126 132 120 111 100 87 72 56 39 20 6 356 351 349 350 349 346 343 339 330 323 323 322 319 315 311 309 305 303 304 302 300 299 297 294 296 298 298 299
214 207 184 178 173 166 162 162 165 163 158 158 154 135 128 126 125 119 113 102 88 72 52 31 18 7 1 355 347 344 341 339 339 334 324 318 316 318 320 320 316 310 306 306 307 306 303 302 301 302 301 299 299 300
225 192 173 171 169 168 168 166 159 146 147 140 138 130 128 129 128 126 118 105 87 64 43 29 16 6 359 352 345 342 340 338 337 335 331 322 321 322 323 324 321 312 310 312 311 308 311 312 310 308 305 301 297 297
178 174 169 171 168 161 157 149 147 143 140 132 127 121 124 132 134 128 119 104 83 53 32 24 16 6 354 343 338 336 337 337 335 333 329 327 325 327 330 326 319 320 318 311 309 313 315 313 311 310 309 308 308 307
172 174 173 171 164 159 153 151 151 148 145 143 136 135 134 135 133 128 119 103 68 40 22 10 2 359 354 347 339 332 333 333 334 332 330 328 327 328 329 326 321 320 320 319 318 316 315 315 314 313 309 309 309 307
176 175 176 179 165 159 159 156 155 153 151 148 148 146 148 148 144 137 123 84 50 27 12 1 353 350 348 344 339 336 334 334 334 333 331 329 328 328 328 327 324 322 320 318 318 318 318 317 315 314 315 315 314 313
Height
2919 2921 2922 2922 2922 2922 2922 2924 2924 2925 2927 2928 2930 2932 2933 2935 2938 2940 2943 2946 2949 2949 2949 2953 2956 2958 2962 2964 2965 2967 2968 2967 2968 2968 2969 2968 2967 2966 2965 2961 2960 2964 2967 2969 2973 2975 2975 2972 2972 2974 2973 2972 2973 2972
2910 2912 2913 2913 2913 2914 2915 2916 2917 2919 2920 2921 2923 2926 2928 2929 2932 2934 2937 2941 2945 2945 2945 2948 2950 2953 2957 2960 2962 2963 2964 2966 2966 2967 2968 2967 2966 2966 2966 2963 2957 2963 2966 2966 2969 2970 2968 2969 2970 2970 2971 2971 2972 2972
2901 2903 2904 2905 2905 2906 2907 2908 2910 2912 2913 2915 2917 2919 2922 2924 2926 2928 2932 2937 2938 2940 2942 2944 2946 2951 2951 2954 2957 2958 2960 2964 2965 2967 2967 2967 2967 2966 2965 2963 2959 2960 2961 2964 2966 2965 2966 2968 2968 2969 2969 2969 2970 2970
2892 2894 2896 2897 2898 2899 2899 2900 2902 2903 2905 2908 2910 2913 2916 2920 2922 2924 2926 2931 2935 2938 2938 2939 2942 2944 2947 2949 2951 2956 2958 2960 2960 2961 2964 2965 2965 2965 2964 2964 2962 2961 2962 2962 2963 2961 2963 2965 2967 2968 2967 2968 2968 2968
2884 2886 2888 2889 2890 2891 2892 2892 2893 2895 2897 2899 2903 2906 2910 2914 2918 2921 2924 2927 2931 2938 2934 2935 2936 2939 2942 2944 2948 2953 2954 2957 2959 2959 2961 2963 2962 2963 2961 2960 2959 2960 2961 2963 2959 2960 2961 2963 2965 2966 2966 2966 2965 2965
2876 2879 2881 2882 2883 2884 2884 2883 2883 2884 2886 2890 2894 2900 2905 2910 2914 2918 2921 2924 2927 2931 2935 2934 2935 2935 2937 2941 2945 2949 2952 2955 2957 2958 2960 2960 2961 2962 2960 2958 2958 2958 2960 2961 2960 2960 2961 2962 2963 2962 2964 2964 2963 2962
2870 2873 2875 2877 2878 2877 2875 2873 2871 2872 2874 2878 2885 2892 2899 2905 2908 2912 2917 2923 2927 2931 2934 2935 2932 2932 2934 2939 2942 2945 2949 2951 2953 2955 2956 2957 2959 2959 2958 2958 2957 2958 2959 2958 2959 2959 2959 2961 2961 2961 2962 2962 2960 2957
2865 2869 2871 2872 2872 2870 2866 2861 2857 2855 2859 2866 2876 2885 2894 2901 2907 2911 2917 2921 2925 2929 2933 2934 2931 2931 2933 2936 2939 2942 2944 2948 2950 2952 2953 2954 2955 2955 2954 2955 2955 2956 2956 2957 2957 2959 2958 2959 2959 2958 2957 2956 2955 2954
2862 2865 2867 2868 2867 2864 2860 2852 2842 2835 2845 2858 2869 2880 2889 2895 2901 2908 2916 2920 2923 2929 2929 2929 2930 2930 2931 2933 2936 2939 2941 2945 2947 2947 2950 2952 2950 2951 2951 2952 2952 2953 2954 2955 2956 2956 2955 2956 2955 2954 2953 2952 2952 2951
2859 2862 2864 2865 2864 2862 2858 2852 2847 2843 2848 2857 2868 2878 2882 2894 2903 2911 2915 2919 2922 2924 2925 2926 2928 2927 2929 2931 2931 2938 2940 2942 2943 2944 2945 2945 2944 2947 2949 2950 2951 2951 2952 2953 2952 2952 2950 2950 2949 2949 2948 2947 2946 2944
2857 2860 2861 2863 2863 2862 2860 2857 2856 2856 2859 2865 2873 2877 2887 2896 2903 2909 2914 2917 2919 2921 2922 2924 2926 2925 2926 2926 2931 2935 2936 2939 2940 2942 2943 2940 2940 2944 2945 2947 2948 2948 2947 2946 2946 2945 2945 2944 2944 2943 2942 2940 2939 2938
2856 2858 2861 2861 2861 2862 2862 2863 2864 2866 2870 2874 2876 2884 2892 2898 2904 2908 2911 2915 2916 2918 2918 2920 2923 2925 2926 2926 2928 2933 2935 2937 2937 2938 2939 2936 2937 2939 2941 2942 2942 2941 2941 2940 2939 2939 2938 2938 2937 2936 2935 2934 2932 2932
2855 2858 2860 2860 2861 2863 2865 2867 2871 2874 2878 2880 2885 2890 2894 2899 2902 2905 2907 2910 2912 2913 2916 2918 2921 2924 2926 2927 2927 2928 2931 2934 2935 2935 2933 2933 2934 2934 2936 2936 2936 2936 2935 2934 2933 2933 2931 2930 2930 2929 2928 2928 2927 2925
2856 2859 2860 2862 2863 2865 2866 2870 2873 2877 2883 2886 2887 2891 2896 2897 2899 2900 2903 2907 2910 2912 2914 2917 2920 2923 2925 2927 2927 2928 2929 2931 2931 2930 2928 2931 2931 2931 2931 2932 2931 2931 2930 2929 2929 2928 2926 2925 2923 2923 2922 2921 2920 2920
2857 2860 2863 2866 2867 2869 2871 2875 2878 2882 2885 2887 2890 2891 2894 2895 2897 2899 2902 2906 2910 2912 2914 2916 2919 2922 2923 2925 2925 2927 2927 2927 2926 2925 2925 2925 2926 2926 2927 2927 2927 2926 2925 2924 2924 2923 2922 2921 2919 2918 2917 2916 2916 2915
2859 2862 2866 2869 2871 2874 2877 2880 2883 2885 2886 2888 2890 2892 2894 2896 2898 2900 2903 2906 2909 2912 2914 2917 2919 2921 2922 2923 2923 2923 2924 2922 2922 2923 2924 2924 2924 2924 2924 2923 2922 2922 2922 2921 2920 2920 2919 2918 2917 2916 2915 2914 2913 2913
2862 2865 2868 2871 2873 2876 2878 2882 2884 2886 2887 2889 2890 2892 2893 2896 2898 2900 2902 2906 2908 2911 2913 2915 2917 2918 2919 2919 2920 2919 2919 2920 2921 2921 2922 2922 2922 2922 2922 2921 2921 2920 2920 2919 2919 2918 2917 2916 2915 2914 2914 2913 2913 2913
2867 2869 2871 2874 2877 2879 2882 2883 2885 2886 2887 2889 2892 2893 2895 2897 2899 2901 2903 2906 2909 2910 2913 2914 2915 2915 2916 2915 2916 2917 2917 2918 2918 2919 2920 2920 2921 2921 2921 2920 2920 2920 2919 2919 2919 2918 2918 2917 2916 2915 2915 2915 2915 2915
2869 2872 2874 2876 2878 2881 2882 2884 2885 2886 2889 2892 2894 2896 2898 2899 2901 2903 2905 2906 2909 2911 2913 2913 2913 2913 2914 2914 2915 2916 2917 2918 2918 2919 2920 2920 2920 2919 2919 2919 2919 2919 2920 2919 2919 2919 2918 2918 2917 2917 2917 2916 2915 2914
2872 2875 2876 2878 2879 2881 2882 2885 2887 2890 2893 2896 2897 2899 2901 2902 2904 2905 2906 2907 2908 2910 2911 2911 2912 2913 2914 2916 2917 2918 2919 2919 2919 2919 2919 2920 2919 2919 2919 2919 2919 2919 2919 2919 2919 2918 2918 2917 2917 2916 2915 2915 2914 2913
2875 2878 2879 2880 2881 2882 2883 2887 2889 2893 2895 2897 2900 2901 2902 2904 2905 2906 2908 2908 2909 2909 2909 2912 2914 2916 2917 2918 2919 2920 2920 2920 2920 2920 2919 2919 2918 2918 2918 2918 2918 2918 2918 2917 2917 2916 2915 2915 2914 2913 2913 2912 2911 2910
2877 2879 2881 2882 2883 2883 2886 2888 2891 2894 2897 2899 2901 2903 2904 2905 2906 2908 2908 2910 2910 2913 2914 2915 2917 2919 2920 2920 2921 2920 2920 2920 2919 2919 2918 2917 2917 2917 2916 2915 2915 2915 2914 2914 2913 2913 2912 2911 2911 2910 2909 2908 2907 2906
2879 2881 2883 2884 2885 2887 2891 2891 2894 2895 2899 2901 2904 2906 2907 2908 2910 2912 2913 2914 2914 2916 2918 2919 2920 2921 2921 2921 2921 2921 2920 2920 2919 2918 2917 2916 2916 2915 2915 2914 2913 2913 2912 2911 2910 2910 2909 2908 2907 2906 2905 2904 2903 2902
2881 2883 2885 2885 2886 2888 2892 2893 2895 2897 2900 2903 2906 2907 2910 2911 2913 2914 2915 2916 2918 2919 2919 2920 2921 2921 2921 2921 2921 2920 2919 2918 2917 2916 2915 2914 2914 2913 2912 2912 2911 2910 2909 2908 2907 2906 2905 2904 2903 2902 2901 2900 2900 2899
2884 2886 2887 2886 2887 2890 2892 2894 2896 2898 2901 2904 2907 2909 2912 2913 2915 2916 2918 2918 2918 2920 2921 2922 2922 2921 2921 2920 2919 2919 2918 2916 2915 2914 2914 2913 2911 2910 2909 2908 2907 2906 2906 2904 2903 2902 2901 2900 2900 2899 2898 2897 2897 2896
2883 2884 2885 2885 2887 2890 2892 2895 2897 2900 2903 2906 2908 2911 2913 2915 2916 2918 2919 2919 2920 2921 2921 2921 2922 2921 2920 2919 2918 2917 2916 2915 2913 2912 2911 2910 2909 2908 2907 2905 2904 2903 2902 2901 2900 2898 2897 2896 2895 2894 2894 2893 2892 2891
2882 2883 2884 2885 2887 2889 2892 2895 2899 2902 2905 2906 2908 2911 2913 2914 2916 2919 2919 2920 2921 2922 2922 2922 2922 2921 2920 2919 2917 2916 2914 2913 2912 2911 2909 2908 2906 2905 2904 2903 2901 2900 2898 2897 2896 2895 2894 2893 2892 2891 2890 2889 2888 2887
2881 2882 2884 2886 2887 2890 2892 2896 2900 2903 2904 2907 2910 2911 2912 2914 2917 2919 2920 2921 2922 2923 2923 2923 2922 2921 2919 2917 2916 2915 2913 2912 2911 2909 2907 2906 2904 2902 2901 2899 2898 2896 2895 2894 2893 2892 2891 2890 2889 2888 2887 2886 2885 2884
2880 2881 2883 2885 2888 2891 2894 2897 2900 2902 2904 2907 2909 2910 2912 2914 2917 2919 2921 2922 2923 2923 2923 2923 2921 2920 2918 2917 2915 2914 2912 2911 2909 2908 2905 2904 2902 2900 2898 2897 2895 2893 2892 2891 2890 2889 2888 2887 2886 2885 2885 2883 2882 2881
2878 2880 2882 2885 2888 2891 2895 2898 2900 2903 2906 2908 2910 2911 2913 2915 2917 2920 2921 2922 2923 2923 2923 2922 2921 2918 2917 2915 2914 2912 2911 2909 2907 2905 2903 2901 2900 2898 2896 2894 2892 2891 2889 2888 2887 2886 2886 2885 2884 2883 2882 2881 2880 2879
2876 2879 2882 2885 2889 2892 2895 2898 2901 2905 2908 2909 2911 2913 2915 2915 2918 2920 2921 2922 2922 2922 2921 2921 2920 2918 2916 2913 2911 2910 2908 2906 2904 2902 2900 2898 2896 2895 2893 2891 2889 2888 2888 2887 2885 2884 2884 2883 2882 2881 2879 2878 2877 2875
2877 2880 2883 2886 2889 2893 2895 2899 2903 2905 2907 2910 2911 2914 2915 2917 2918 2920 2921 2921 2921 2920 2920 2918 2917 2915 2914 2912 2909 2907 2905 2903 2901 2899 2897 2895 2893 2892 2890 2889 2887 2886 2885 2884 2883 2882 2881 2880 2879 2878 2876 2875 2873 2872
2880 2883 2887 2890 2892 2894 2897 2901 2904 2907 2909 2910 2912 2913 2915 2917 2918 2919 2920 2920 2920 2919 2918 2917 2915 2913 2911 2909 2907 2904 2902 2900 2898 2896 2894 2892 2891 2889 2888 2887 2886 2885 2884 2882 2881 2880 2879 2877 2876 2875 2873 2871 2870 2868